Tracking 22779 objects as of 13-Apr-2021
HD Live streaming from Space Station
objects crossing your sky now

DIADEME 2

Track DIADEME 2 now!
10-day predictions
DIADEME 2 is classified as:


NORAD ID: 2680
Int'l Code: 1967-014A
Perigee: 586.0 km
Apogee: 1,661.0 km
Inclination: 39.4 °
Period: 107.6 minutes
Semi major axis: 7494 km
RCS: 0.6374 m2 (medium)
Launch date: February 15, 1967
Source: France (FR)
Launch site: HAMMA GUIRA SPACE TRACK RANGE (HGSTR)
aabbcc
Your satellite tracking list
Your tracking list is empty




NASA's NSSDC Master Catalog

Two Line Element Set (TLE):
1  2680U 67014A   21103.38362989 -.00000078  00000-0  71397-5 0  9997
2  2680  39.4386 208.0810 0717233  88.6476 279.6241 13.38101065622832
Source of the keplerian elements: AFSPC